EW5900 Weather Reports


time (UTC)temp
F
wind
direction
speed
knots
gust
knots
rain 1hr
in
rain 24hr
in
rain mn
in
humidity
%
barometer
mb
20260510193030 74 10 7.0 12.2 0.80 0.89 0.80 88 1015.9
20260510191525 79 12 7.0 17.4 0.28 0.37 0.28 86 1016.1
20260510190021 83 10 8.7 12.2 0.00 0.09 0.00 78 1015.0
20260510184520 83 46 7.8 11.3 0.00 0.09 0.00 76 1014.8
20260510183020 83 17 7.8 14.8 0.00 0.09 0.00 76 1015.3
20260510181529 83 31 9.6 13.9 0.00 0.09 0.00 75 1015.4
20260510180018 84 19 4.3 13.9 0.00 0.09 0.00 69 1015.5
20260510174518 88 301 0.9 6.1 0.00 0.09 0.00 59 1015.4
20260510173017 89 83 1.7 5.2 0.00 0.09 0.00 60 1015.6
20260510171516 89 34 1.7 6.1 0.00 0.09 0.00 59 1015.7
20260510170013 88 196 2.6 9.6 0.00 0.09 0.00 62 1015.8
20260510164515 87 234 4.3 13.0 0.00 0.09 0.00 65 1016.1
20260510163008 86 225 2.6 11.3 0.00 0.09 0.00 67 1016.5
20260510161505 86 235 4.3 7.8 0.00 0.09 0.00 69 1016.5
20260510160005 86 355 4.3 10.4 0.00 0.09 0.00 69 1016.5
20260510154501 85 238 5.2 9.6 0.00 0.09 0.00 70 1016.6
20260510153059 84 248 6.1 8.7 0.00 0.09 0.00 71 1016.6
20260510151603 84 232 1.7 7.8 0.00 0.09 0.00 71 1016.5
20260510144605 83 216 5.2 9.6 0.00 0.09 0.00 72 1016.4
20260510143059 82 234 6.1 10.4 0.00 0.09 0.00 76 1016.4
20260510141547 81 153 5.2 7.8 0.00 0.09 0.00 79 1016.2
20260510140043 80 32 6.1 8.7 0.00 0.09 0.00 81 1016.0
20260510134540 79 49 3.5 6.1 0.00 0.09 0.00 85 1015.7
20260510133036 78 41 3.5 7.0 0.00 0.09 0.00 87 1015.7
20260510131544 77 27 5.2 8.7 0.00 0.09 0.00 89 1015.7
20260510130029 76 19 6.1 8.7 0.00 0.09 0.00 92 1015.6
20260510124526 75 22 3.5 7.0 0.00 0.09 0.00 93 1015.6
20260510123023 75 15 2.6 4.3 0.00 0.09 0.00 93 1015.5
20260510121519 74 16 2.6 4.3 0.00 0.09 0.00 94 1015.3
20260510120017 74 17 2.6 7.0 0.00 0.09 0.00 94 1015.2
20260510114519 74 16 2.6 4.3 0.00 0.09 0.00 95 1014.7
20260510113019 73 19 1.7 4.3 0.00 0.09 0.00 95 1014.8
20260510111513 73 16 1.7 5.2 0.00 0.09 0.00 94 1014.4
20260510110010 73 18 2.6 4.3 0.00 0.09 0.00 95 1014.3
20260510104506 73 17 2.6 4.3 0.00 0.09 0.00 95 1014.0
20260510103006 73 15 1.7 4.3 0.00 0.09 0.00 95 1013.8
20260510101504 73 15 2.6 4.3 0.00 0.09 0.00 95 1013.6
20260510100004 73 16 1.7 2.6 0.00 0.09 0.00 95 1013.5
20260510094505 73 16 0.9 2.6 0.00 0.09 0.00 95 1013.4
20260510093002 73 15 1.7 3.5 0.00 0.09 0.00 95 1013.3
20260510091502 73 16 1.7 5.2 0.00 0.09 0.00 95 1013.2
20260510084602 73 15 0.9 4.3 0.00 0.09 0.00 94 1013.0
20260510083059 73 15 3.5 5.2 0.00 0.09 0.00 94 1013.0
20260510081557 73 15 1.7 4.3 0.00 0.09 0.00 94 1013.2
20260510080103 73 15 2.6 4.3 0.00 0.09 0.00 94 1013.1
20260510074555 73 14 0.9 3.5 0.00 0.09 0.00 93 1013.1
20260510073113 74 14 2.6 4.3 0.00 0.09 0.00 93 1013.1
20260510071553 74 15 0.9 2.6 0.00 0.09 0.00 93 1013.3
20260510070057 74 15 0.9 2.6 0.00 0.09 0.00 93 1013.5
20260510064619 74 15 0.9 2.6 0.00 0.09 0.00 92 1013.7
20260510063048 74 15 0.9 2.6 0.00 0.09 0.00 92 1013.8
20260510061546 74 15 0.9 1.7 0.00 0.09 0.00 92 1013.9
20260510060044 75 14 1.7 3.5 0.00 0.09 0.00 92 1014.0
20260510054545 75 15 0.0 2.6 0.00 0.09 0.00 92 1014.1
20260510053044 75 14 1.7 3.5 0.00 0.09 0.00 92 1014.3
20260510051548 75 14 0.0 1.7 0.00 0.09 0.00 91 1014.6
20260510050036 75 13 1.7 3.5 0.00 0.09 0.00 91 1014.7
20260510044534 75 15 0.9 3.5 0.00 0.09 0.00 91 1014.8
20260510043033 75 12 0.9 3.5 0.00 0.09 0.00 91 1014.7
20260510041534 75 11 0.9 2.6 0.00 0.09 0.00 91 1014.8
20260510040028 75 11 0.0 1.7 0.00 0.09 0.00 91 1014.8
20260510034528 75 12 0.9 2.6 0.00 0.09 0.09 91 1014.7
20260510033026 75 13 0.9 3.5 0.00 0.09 0.09 91 1014.6
20260510031530 76 11 0.9 2.6 0.00 0.09 0.09 91 1014.6
20260510030024 76 11 0.9 4.3 0.00 0.09 0.09 91 1014.8
20260510024524 76 12 1.7 4.3 0.00 0.09 0.09 91 1014.6
20260510023024 76 11 0.9 3.5 0.00 0.09 0.09 90 1014.7
20260510021529 76 11 1.7 3.5 0.00 0.09 0.09 90 1014.7
20260510020027 76 11 2.6 4.3 0.00 0.09 0.09 90 1014.5
20260510014521 76 11 2.6 4.3 0.00 0.09 0.09 90 1014.2
20260510013020 76 11 1.7 3.5 0.00 0.09 0.09 90 1014.1
20260510011519 76 11 2.6 3.5 0.00 0.09 0.09 90 1014.2
20260510010019 76 9 0.9 4.3 0.00 0.09 0.09 90 1014.2
20260510004519 76 10 1.7 5.2 0.00 0.10 0.09 90 1013.7
20260510003018 76 9 2.6 4.3 0.00 0.10 0.09 91 1013.5
20260510001517 76 9 0.9 3.5 0.00 0.10 0.09 91 1013.4
20260510000019 76 10 2.6 5.2 0.00 0.10 0.09 90 1013.4
20260509234515 76 10 4.3 7.0 0.00 0.83 0.09 90 1013.1
20260509233018 77 9 2.6 7.0 0.00 0.83 0.09 89 1013.0
20260509231513 76 9 1.7 7.0 0.06 0.83 0.09 89 1012.8
20260509230011 76 9 5.2 7.8 0.07 0.83 0.09 88 1012.6
20260509224512 76 10 2.6 5.2 0.07 0.83 0.09 87 1012.6
20260509223011 76 10 2.6 5.2 0.07 0.83 0.09 86 1012.7
20260509221510 77 10 2.6 7.8 0.02 0.77 0.03 85 1012.9
20260509220009 77 19 0.0 3.5 0.01 0.76 0.02 82 1013.1
20260509214508 77 19 2.6 9.6 0.02 0.76 0.02 81 1012.7
20260509213012 78 9 0.9 8.7 0.02 0.76 0.02 80 1012.4
20260509211508 78 5 5.2 10.4 0.01 0.75 0.01 82 1012.1
20260509210007 79 9 7.0 10.4 0.01 0.75 0.01 82 1012.0
20260509204511 81 9 6.1 12.2 0.00 0.74 0.00 77 1012.1
20260509203018 82 10 7.8 13.0 0.00 0.74 0.00 76 1011.9
20260509201505 82 11 4.3 9.6 0.00 0.74 0.00 77 1011.5
20260509200004 83 12 6.1 10.4 0.00 0.74 0.00 77 1011.4
20260509194504 82 11 7.0 11.3 0.00 0.74 0.00 78 1011.5